Hourly Data Report for March 24, 2020

All times are specified in Local Standard Time (LST). Add 1 hour to adjust for Daylight Saving Time where and when it is observed.

OTTAWA INTL A
ONTARIO
Current Station Operator: NAVCAN

45°19'00.000" N
75°40'00.000" W
114.90 m
6106001
71628
YOW

Download Data

Hourly Data (March 2020)
Hourly Data Report for March 24, 2020
TIME Temp Definition
°C
Dew Point Definition
°C
Rel Hum Definition
%
Wind Dir Definition
10's deg

Wind Spd Definition
km/h
Visibility Definition
km
Stn Press Definition
kPa
Hmdx Definition


Wind Chill Definition


Weather Definition


00:00 -1.5 -2.0 97 5 9 8.1 100.62   -5 Fog
01:00 -1.4 -1.9 97 2 10 6.4 100.64   -5 Fog
02:00 -1.3 -1.8 97 36 7 6.4 100.66   -4 Fog
03:00 -1.3 -1.8 97 36 5 6.4 100.64   -3 Fog
04:00 -1.7 -2.2 97 1 5 2.4 100.66   -4 Fog
05:00 -1.8 -2.2 97 29 8 2.4 100.72   -5 Fog
06:00 -1.9 -2.2 97 29 8 4.8 100.79   -5 Fog
07:00 -1.7 -2.0 97 29 10 8.1 100.82   -5 Fog
08:00 -1.3 -1.8 97 29 13 8.1 100.90   -6 Fog
09:00 -0.8 -1.4 95 28 8 9.7 100.95   -4 Fog
10:00 -0.2 -1.2 93 24 4 12.9 100.97   -1 Cloudy
11:00 0.3 -1.3 89 23 7 16.1 100.97     LegendNANA
12:00 1.0 -1.4 85 24 10 24.1 100.94     LegendNANA
13:00 1.7 -0.8 84 25 11 24.1 100.89     Cloudy
14:00 2.4 -0.4 82 26 14 24.1 100.85     LegendNANA
15:00 3.1 -0.1 79 23 11 24.1 100.83     LegendNANA
16:00 3.9 0.1 77 25 10 24.1 100.80     Mainly Clear
17:00 4.3 0.0 73 23 9 24.1 100.82     LegendNANA
18:00 3.3 -0.7 75 21 5 24.1 100.84     LegendNANA
19:00 3.0 -0.6 77 24 5 24.1 100.84     Mostly Cloudy
20:00 1.6 -0.8 84 22 5 24.1 100.86     LegendNANA
21:00 -0.3 -2.1 87 36 2 24.1 100.89   -1 LegendNANA
22:00 0.1 -1.4 90 17 4 24.1 100.84     Mainly Clear
23:00 -1.7 -2.8 92 9 6 24.1 100.78   -4 LegendNANA

Notes on Data Quality.

Legend

  • E = Estimated
  • M = Missing
  • NA = Not Available*
  • [empty] = Indicates an unobserved value
Date modified: